Home > Time Zones > World Clock > Weather > U.S.A. > Erie > Past weeks

Flag for U.S.A. Weather past 2 weeks in Erie, Pennsylvania, U.S.A.

Now
58 °F

Clear.


Feels Like: 57 °F
Forecast: 58 / 74 °F
Wind: 6 mph from South

Location: Erie International Airport

Current Time: Oct 2, 2014 at 3:19:51 AM

Latest Report: Oct 2, 2014 at 2:51 AM


Visibility: 10 mi

Pressure: 30.05 "Hg

Humidity: 87%

Dew point: 54 °F

Location of ErieLocation

Historic Weather in Erie — Graph

°F

Erie temperature yesterday

Maximum temperature yesterday: 70 °F (at 12:51 PM)
Minimum temperature yesterday: 55 °F (at 12:51 AM)
Average temperature yesterday: 62 °F

Past Weeks' High & Low Weather Summary

 TemperatureHumidityPressure
High79 °F (Sep 20, 4:51 PM)94% (Oct 2, 12:00 AM)30.47 "Hg (Oct 2, 12:00 AM)
Low46 °F (Sep 23, 5:51 AM)39% (Sep 24, 2:51 PM)29.63 "Hg (Sep 21, 8:51 AM)
Average61 °F72%30.12 "Hg
* Reported Sep 17 1:51 AM — Oct 2 1:51 AM, Erie, Weather by CustomWeather, © 2014

Note: Actual official high and low records may vary slightly from our data, if they occured in-between our weather recording intervals... More about our weather records

Advertising

Erie weather history for previous 24 hours

 ConditionsComfort  
Time TempWeatherWind HumidityBarometerVisibility
1:51 AM
Oct 2
58 °FFog.No wind90%30.05 "Hg5 mi
12:51 AM59 °FFog.3 mph90%30.04 "Hg3 mi
12:00 AM59 °FFog.No wind94%30.05 "Hg1 mi
10:51 PM
Oct 1
63 °FFog.8 mph90%30.04 "Hg4 mi
9:51 PM63 °FFog.8 mph87%30.04 "Hg5 mi
8:51 PM63 °FClear.7 mph84%30.03 "Hg7 mi
7:51 PM64 °FSunny.9 mph84%30.03 "Hg8 mi
6:51 PM65 °FPassing clouds.10 mph81%30.03 "Hg7 mi
5:51 PM66 °FSunny.10 mph78%30.01 "Hg10 mi
4:51 PM68 °FSunny.10 mph73%30.01 "Hg10 mi
3:51 PM68 °FSunny.14 mph70%30.02 "Hg10 mi
2:51 PM68 °FPassing clouds.8 mph70%30.03 "Hg10 mi
1:51 PM68 °FSunny.9 mph70%30.03 "Hg10 mi
12:51 PM70 °FPassing clouds.5 mph64%30.03 "Hg10 mi
11:51 AM66 °FPartly sunny.5 mph73%30.05 "Hg9 mi
10:51 AM66 °FScattered clouds.No wind70%30.05 "Hg10 mi
9:51 AM62 °FSunny.8 mph80%30.04 "Hg10 mi
8:51 AM59 °FFog.5 mph90%30.02 "Hg6 mi
7:51 AM55 °FPassing clouds.No wind90%30.01 "Hg10 mi
6:51 AM55 °FClear.No wind93%30.00 "Hg9 mi
5:51 AM57 °FPassing clouds.No wind90%29.99 "Hg10 mi
4:51 AM58 °FOvercast.No wind90%29.99 "Hg10 mi
3:51 AM57 °FMostly cloudy.5 mph90%29.98 "Hg10 mi
Weather by CustomWeather, © 2014

See weather overviewHow to use our weather pages